SL-16 R/B (25407 NORAD) Tracking and Keplerian Element Data

This shows tracking and keplerian element data for the satellite.

Feedback or suggestion? Click here.




ElementValue
Catalog25407
NameSL-16 R/B
Epoch Orbit3191
Epoch Day198.81373619
Epoch Year2018
RAAN290.0262
Inclination71.0107
Eccentricity0.0009279
Argument of Perigee312.4496
Mean Anonmoly47.5842
Mean Motion14.1577654
Decay Rate-2.03E-06
L11 25407U 98045B 18198.81373619 -.00000203 00000-0 -78828-4 0 9993
L22 25407 71.0107 290.0262 0009279 312.4496 47.5842 14.15776540 31917

Live tracking and technical data element details for SL-16 R/B (NORAD 25407). SL-16 R/B can be tracked NOW for your location showing map with azimuth and elevation plus other details from your city location.

Track the satellite on the map from your city or location and see movement details for azimuth, elevation, latitude, longitude, range, height, and movement on the map or in text.







IsCatalogInMostPopularTable: catalog: 25407, numindb: 22
Update: records affected: 1



GetName: 25407 SL-16 R/B

Hit Count: updated at: Wed, 18 Jul 2018 20:16:34 GMT